Content
SEND FEEDBACK

Daily
Averages
Monthly
Summary
United States of America

SYRACUSE, NEW YORK


Home > North America > United States > New York
Elevation: 421 feet     Latitude: 43 07N     Longitude: 076 07W

WEATHER
 
SELECT A DAY
Number of Records: 227,825;   Date Range: 1/1/95 - 11/19/14
 
SHARE

PRINT THIS DATA

[ ← Previous Day ]
WEATHER ALMANAC - FEBRUARY 19, 2013
[ Next Day → ]
[ °C ]   °F
Weather ElementAverageHighLow
Temperature32.3 °F39.9 °F (9:54 am)19.9 °F (1:54 am)
Dewpoint22 °F32 °F (5:54 pm)9 °F (1:54 am)
Humidity66.2 %82 % (5:54 pm)45 % (9:54 am)
Barometer29.73 in30.00 in (1:54 am)29.59 in (2:54 pm)
Wind Speed9.4 mph21.9 mph (11:54 pm)
Wind Gust31.1 mph (11:54 pm)
Weather ElementAverage
Visibility9.3 mi
Wind DirectionSE (131.6 °)

Weather ElementTotal
Precipitation0.15 in
Heating Degree Days35.1 (Base 65)
Averaged from 32 records on February 19, 2013
WEATHER CONDITIONS BREAKOUT
WIND DIRECTION BREAKOUT
WEATHER BY HOUR - FEBRUARY 19, 2013
[ °C ]   °F
Local TimeTemperatureDewpointHumidityBarometerVisibilityWind DirectionWind SpeedGust SpeedPrecipitationEventsConditions
1:54 AM19.9 °F9.0 °F62 %30.00 in10.0 miEast (90°)5.8 mphScattered Clouds
2:54 AM23.0 °F10.0 °F58 %29.97 in10.0 miENE (70°)8.1 mphMostly Cloudy
3:54 AM24.1 °F10.9 °F57 %29.93 in10.0 miENE (70°)9.2 mphOvercast
4:54 AM24.1 °F10.9 °F57 %29.89 in10.0 miENE (70°)10.4 mphScattered Clouds
5:54 AM25.0 °F10.9 °F55 %29.85 in10.0 miENE (70°)10.4 mphScattered Clouds
6:54 AM26.1 °F12.0 °F55 %29.80 in10.0 miENE (70°)13.8 mphMostly Cloudy
7:54 AM27.0 °F14.0 °F58 %29.80 in10.0 miEast (90°)6.9 mphOvercast
8:54 AM28.9 °F16.0 °F58 %29.79 in10.0 miEast (90°)9.2 mphOvercast
9:54 AM39.9 °F19.9 °F45 %29.74 in10.0 miCalmOvercast
10:44 AM32.0 °F19.4 °F60 %29.73 in10.0 miNorth (10°)6.9 mph0.00 inRainLight Freezing Rain
10:47 AM33.8 °F19.4 °F56 %29.73 in10.0 miCalm0.00 inRainLight Freezing Rain
10:52 AM33.8 °F19.4 °F56 %29.72 in10.0 miVariable3.5 mph0.00 inLight Ice Pellets
10:54 AM34.0 °F19.9 °F56 %29.73 in10.0 miVariable3.5 mph0.00 inLight Ice Pellets
11:22 AM35.6 °F26.6 °F70 %29.71 in10.0 miVariable3.5 mph0.01 inRainLight Rain
11:27 AM33.8 °F24.8 °F70 %29.70 in10.0 miVariable3.5 mph0.01 inRainLight Rain
11:54 AM34.0 °F27.0 °F75 %29.70 in8.0 miENE (70°)4.6 mph0.03 inRainLight Rain
12:07 PM37.4 °F30.2 °F75 %29.68 in7.0 miESE (120°)10.4 mph0.01 inRainLight Rain
1:41 PM37.4 °F30.2 °F75 %29.63 in10.0 miSSE (150°)8.1 mph18.4 mph0.01 inRainLight Rain
1:54 PM37.0 °F30.9 °F79 %29.63 in4.0 miSouth (170°)8.1 mph17.3 mph0.02 inRainRain
2:20 PM37.4 °F30.2 °F75 %29.62 in10.0 miSSE (150°)12.7 mph0.02 inLight Drizzle
2:54 PM37.0 °F30.9 °F79 %29.59 in10.0 miSSE (150°)10.4 mph0.03 inRainLight Rain
3:54 PM39.0 °F30.9 °F73 %29.60 in10.0 miSouth (170°)11.5 mph0.00 inOvercast
4:54 PM37.9 °F30.9 °F76 %29.61 in10.0 miSSW (210°)9.2 mph0.00 inRainLight Rain
5:11 PM37.4 °F30.2 °F75 %29.61 in10.0 miSW (220°)6.9 mph0.00 inRainLight Rain
5:54 PM37.0 °F32.0 °F82 %29.65 in10.0 miWest (270°)10.4 mph0.01 inRainLight Rain
6:14 PM35.6 °F30.2 °F81 %29.67 in7.0 miWest (280°)20.7 mph25.3 mph0.00 inRain-SnowLight Rain
7:54 PM32.0 °F24.1 °F73 %29.71 in9.0 miWest (280°)13.8 mph0.00 inSnowLight Snow
8:17 PM32.0 °F24.8 °F75 %29.70 in5.0 miWest (260°)9.2 mph0.00 inSnowLight Snow
8:54 PM32.0 °F23.0 °F69 %29.71 in9.0 miWest (260°)10.4 mph0.00 inSnowLight Snow
9:54 PM32.0 °F21.0 °F64 %29.72 in9.0 miWNW (290°)17.3 mph26.5 mph0.00 inSnowLight Snow
10:54 PM30.0 °F18.0 °F61 %29.73 in9.0 miWest (260°)20.7 mph28.8 mph0.00 inSnowLight Snow
11:54 PM28.9 °F16.0 °F58 %29.74 in10.0 miWest (270°)21.9 mph31.1 mph0.00 inOvercast
Hourly data recorded from KSYR, located miles away from Syracuse, New York







STORIES FROM OUR PARTNERS